[[{"header":{"parameterUnit":"m.s-1","parameterCategory":1,"la1":30.2991,"la2":30.254,"lo1":-89.0895,"lo2":-89.0444,"dy":0.0017,"dx":0.0017,"nx":28,"ny":28,"refTime":"2025-06-02T09:00:00:Z","depth":0,"parameterNumber":2,"parameterNumberName":"U-component_of_WINDS"},"data":[0,0,0,0,0,0,0,0,0,0,0,0,0,0,0,0,0,0,0,0,0,0,0,0,0,0,0,0,0,0,0,0,0,0,0,0,0,0,0,0,0,0,0,0,0,0,0,0,0,0,0,0,0,0,0,0,0,0,-4.2811,-4.2811,0,-4.2861,-4.2861,-4.2862,-4.2822,-4.2821,-4.2819,-4.2817,-4.2866,-4.2869,-4.2871,0,0,0,0,0,0,0,0,0,0,0,0,0,-4.2678,-4.268,-4.2811,-4.2811,-4.2812,-4.2861,-4.2861,-4.2862,-4.2822,-4.282,-4.2818,-4.2816,-4.2865,-4.2868,-4.2872,0,0,0,0,0,0,0,0,0,0,0,0,0,-4.2732,-4.2681,-4.281,-4.2798,-4.2797,-4.2861,-4.2861,-4.2862,-4.2823,-4.282,-4.2818,-4.2815,-4.2864,-4.2868,-4.2872,-4.2949,0,0,-4.2885,-4.2887,0,0,0,0,0,0,0,0,-4.2729,-4.2737,-4.2799,-4.2799,-4.2798,-4.2833,-4.2832,-4.2891,-4.2824,-4.2813,-4.2817,-4.2814,-4.2857,-4.2861,-4.2876,-4.2952,-4.2954,-4.2886,-4.2888,-4.289,-4.2891,0,0,0,0,0,0,0,-4.2726,-4.2735,-4.283,-4.28,-4.28,-4.2789,-4.2794,-4.2843,-4.2848,-4.2814,-4.2811,-4.2818,-4.2856,-4.2872,-4.2877,-4.2954,-4.2886,-4.2889,-4.2892,-4.2894,-4.3094,-4.3097,0,0,0,0,0,0,-4.2723,-4.2732,-4.2829,-4.2832,-4.2757,-4.2794,-4.2799,-4.2824,-4.2848,-4.2849,-4.282,-4.2816,-4.2866,-4.2872,-4.2879,-4.2969,-4.289,-4.2894,-4.2897,-4.3092,-4.3095,-4.3098,0,0,0,0,0,0,-4.2721,-4.2732,-4.2827,-4.2781,-4.2793,-4.2799,-4.2827,-4.2827,-4.2843,-4.2852,-4.2853,-4.2836,-4.2864,-4.2873,-4.2932,-4.297,-4.2896,-4.29,-4.3088,-4.3093,-4.3097,-4.3151,0,0,0,0,0,0,-4.2717,-4.2732,-4.2762,-4.2782,-4.2795,-4.288,-4.283,-4.2829,-4.2851,-4.2846,-4.2867,-4.2868,-4.2863,-4.2926,-4.2936,-4.2975,-4.2903,-4.3085,-4.309,-4.3095,-4.3146,-4.3157,-4.3166,0,0,0,0,0,-4.2713,-4.2775,-4.2763,-4.2775,-4.2833,-4.2882,-4.289,-4.2883,-4.2854,-4.2883,-4.289,-4.2868,-4.2965,-4.2932,-4.2944,-4.2984,-4.3082,-4.3089,-4.3095,-4.3142,-4.3155,-4.3166,0,0,0,0,0,0,-4.2757,-4.2777,-4.2765,-4.2836,-4.2858,-4.2876,-4.2912,-4.2897,-4.2927,-4.2921,-4.2911,-4.2916,-4.2978,-4.2987,-4.295,-4.306,-4.3019,-4.3028,-4.3051,-4.3063,-4.3073,-4.3068,-4.2907,0,0,0,0,0,-4.2776,-4.2815,-4.283,-4.2891,-4.2903,-4.2906,-4.2928,-4.2921,-4.2943,-4.2951,-4.2962,-4.2983,-4.3019,-4.3042,-4.3075,-4.3149,-4.3152,-4.3182,-4.3192,-4.32,-4.3207,-4.3245,-4.3258,-4.3118,-4.3118,-4.3118,0,0,-4.2813,-4.2829,-4.2854,-4.2901,-4.2917,-4.2957,-4.2914,-4.2959,-4.2988,-4.2958,-4.3014,-4.3023,-4.3046,-4.3113,-4.3142,-4.3122,-4.3247,-4.3208,-4.3215,-4.3217,-4.3253,-4.3266,-4.3278,-4.3123,-4.3122,-4.3121,0,0,-4.2902,-4.2919,-4.2971,-4.2988,-4.3014,-4.3016,-4.3029,-4.3049,-4.3054,-4.3111,-4.3089,-4.3124,-4.3185,-4.3202,-4.3219,-4.3316,-4.3296,-4.3327,-4.3378,-4.3415,-4.3426,-4.3435,-4.3468,-4.348,-4.3334,-4.3334,-4.3334,0,-4.2945,-4.3005,-4.2999,-4.3045,-4.3066,-4.3042,-4.3094,-4.3111,-4.3146,-4.316,-4.3138,-4.3214,-4.3228,-4.3298,-4.3321,-4.3336,-4.3349,-4.3323,-4.3425,-4.3435,-4.3443,-4.3474,-4.3487,-4.3338,-4.3337,-4.3337,-4.3337,0,-4.3056,-4.3098,-4.3137,-4.3172,-4.3197,-4.3246,-4.3247,-4.3273,-4.3264,-4.3268,-4.3326,-4.3343,-4.3378,-4.3395,-4.3387,-4.3463,-4.3449,-4.3427,-4.3385,-4.346,-4.3489,-4.3501,-4.3343,-4.3341,-4.334,-4.3339,0,0,-4.3172,-4.3204,-4.3218,-4.3233,-4.326,-4.3292,-4.334,-4.3376,-4.3397,-4.3423,-4.3461,-4.3515,-4.3493,-4.3513,-4.3506,-4.354,-4.3613,-4.3512,-4.3513,-4.3528,-4.3696,-4.3711,-4.3725,-4.3601,-4.3604,-4.3605,-4.3693,0,-4.326,-4.3343,-4.3339,-4.3417,-4.3455,-4.3434,-4.3475,-4.3496,-4.3501,-4.3534,-4.354,-4.3577,-4.3547,-4.3558,-4.3591,-4.3597,-4.3646,-4.3591,-4.3635,-4.3636,-4.3627,-4.374,-4.3756,-4.3838,-4.3704,-4.3706,-4.3708,0,-4.3373,-4.3403,-4.3484,-4.3505,-4.3521,-4.3558,-4.359,-4.3623,-4.3645,-4.3647,-4.3669,-4.3658,-4.3705,-4.3665,-4.3729,-4.3692,-4.371,-4.3716,-4.3719,-4.372,-4.3674,-4.3742,-4.3864,-4.3875,-4.3725,-4.3724,-4.3723,0,-4.3446,-4.3507,-4.3563,-4.3577,-4.3604,-4.363,-4.3643,-4.3663,-4.3685,-4.3713,-4.3727,-4.376,-4.3778,-4.3804,-4.3801,-4.3773,-4.3866,-4.3826,-4.3867,-4.3867,-4.3885,-4.3883,-4.4009,-4.3901,-4.3901,-4.3901,-4.3901,0,-4.3543,-4.3593,-4.3596,-4.3631,-4.3686,-4.3682,-4.3736,-4.3745,-4.3764,-4.3799,-4.3784,-4.3817,-4.3813,-4.3846,-4.3845,-4.3897,-4.3906,-4.3907,-4.3906,-4.3907,-4.3906,-4.3916,-4.391,-4.3904,-4.3903,-4.3903,-4.3902,0,-4.3633,-4.3638,-4.3697,-4.3718,-4.3725,-4.3764,-4.3781,-4.3813,-4.3818,-4.3863,-4.3873,-4.388,-4.3918,-4.392,-4.3963,-4.3962,-4.4025,-4.4019,-4.4017,-4.4015,-4.4055,-4.4051,-4.419,-4.4207,-4.4091,-4.4092,-4.4093,0,-4.3693,-4.3731,-4.3757,-4.378,-4.3794,-4.3831,-4.3853,-4.385,-4.3874,-4.3903,-4.3931,-4.3969,-4.3997,-4.4059,-4.4068,-4.4101,-4.4094,-4.414,-4.4098,-4.4098,-4.4091,-4.4088,-4.4091,-4.4147,-4.4149,-4.415,-4.4151,0,-4.3799,-4.38,-4.3833,-4.3867,-4.3894,-4.392,-4.3945,-4.3964,-4.3965,-4.3992,-4.4031,-4.4054,-4.4099,-4.4135,-4.4168,-4.4179,-4.4164,-4.4164,-4.4175,-4.4175,-4.4172,-4.4172,-4.4037,-4.416,-4.4159,-4.4159,-4.4158,-4.4158,-4.3875,-4.3907,-4.393,-4.3967,-4.3985,-4.4009,-4.404,-4.4049,-4.4082,-4.4118,-4.4115,-4.4159,-4.418,-4.4222,-4.4237,-4.427,-4.4254,-4.427,-4.4274,-4.4277,-4.428,-4.4169,-4.4276,-4.4276,-4.4276,-4.4276,-4.4275,0,-4.3978,-4.3992,-4.4026,-4.4061,-4.409,-4.4076,-4.4102,-4.4127,-4.4165,-4.4188,-4.4217,-4.4262,-4.4297,-4.4309,-4.4343,-4.4367,-4.4361,-4.4376,-4.4373,-4.4375,-4.4294,-4.428,-4.438,-4.438,-4.438,-4.438,-4.438,-4.438,-4.4034,-4.4088,-4.4091,-4.4154,-4.4167,-4.421,-4.4226,-4.4247,-4.4264,-4.4315,-4.4345,-4.4353,-4.4371,-4.4406,-4.4437,-4.444,-4.4452,-4.4469,-4.4469,-4.4392,-4.4381,-4.4371,-4.4358,-4.4473,-4.4473,-4.4547,-4.4548,-4.4548]},{"header":{"parameterUnit":"m.s-1","parameterCategory":1,"la1":30.2991,"la2":30.254,"lo1":-89.0895,"lo2":-89.0444,"dy":0.0017,"dx":0.0017,"nx":28,"ny":28,"refTime":"2025-06-02T09:00:00:Z","depth":0,"parameterNumber":3,"parameterNumberName":"V-component_of_WINDS"},"data":[0,0,0,0,0,0,0,0,0,0,0,0,0,0,0,0,0,0,0,0,0,0,0,0,0,0,0,0,0,0,0,0,0,0,0,0,0,0,0,0,0,0,0,0,0,0,0,0,0,0,0,0,0,0,0,0,0,0,4.7696,4.7696,0,4.7745,4.7746,4.7746,4.7684,4.7682,4.7679,4.7677,4.7723,4.7726,4.7729,0,0,0,0,0,0,0,0,0,0,0,0,0,4.7541,4.7544,4.7696,4.7696,4.7697,4.7745,4.7746,4.7747,4.7684,4.7682,4.7679,4.7676,4.7722,4.7725,4.7729,0,0,0,0,0,0,0,0,0,0,0,0,0,4.7601,4.7545,4.7695,4.7672,4.767,4.7745,4.7746,4.7747,4.7685,4.7682,4.7678,4.7675,4.772,4.7725,4.773,4.7829,0,0,4.7745,4.7747,0,0,0,0,0,0,0,0,4.7598,4.7607,4.7675,4.7674,4.7672,4.7705,4.7708,4.7774,4.7686,4.7679,4.7677,4.7673,4.7719,4.7724,4.7741,4.7831,4.7833,4.7746,4.7749,4.7751,4.7752,0,0,0,0,0,0,0,4.7594,4.7604,4.7715,4.7676,4.7674,4.7657,4.7662,4.772,4.7717,4.7679,4.7675,4.7682,4.7718,4.7736,4.7741,4.7834,4.7746,4.775,4.7753,4.7755,4.8006,4.801,0,0,0,0,0,0,4.7593,4.7601,4.7713,4.7716,4.7626,4.7662,4.7668,4.7698,4.7717,4.7716,4.7685,4.7679,4.7729,4.7736,4.7743,4.7858,4.7751,4.7755,4.7758,4.8003,4.8007,4.8011,0,0,0,0,0,0,4.759,4.7604,4.7711,4.7658,4.767,4.7669,4.7703,4.7701,4.7719,4.7721,4.772,4.7705,4.7727,4.7736,4.7808,4.7859,4.7758,4.7762,4.7998,4.8004,4.8009,4.8092,0,0,0,0,0,0,4.7586,4.7603,4.7642,4.7659,4.7673,4.7778,4.7706,4.7704,4.7728,4.7721,4.7739,4.7739,4.7725,4.7801,4.7813,4.7864,4.7766,4.7994,4.8001,4.8007,4.8084,4.8099,4.8112,0,0,0,0,0,4.7581,4.7662,4.7644,4.7658,4.7722,4.7781,4.7789,4.7773,4.7733,4.777,4.7772,4.7738,4.7852,4.7809,4.7822,4.7875,4.799,4.7999,4.8007,4.8078,4.8096,4.8112,0,0,0,0,0,0,4.7648,4.7664,4.7644,4.7734,4.7757,4.777,4.7818,4.7793,4.7826,4.7818,4.7795,4.7799,4.7876,4.7883,4.7835,4.7971,4.7914,4.7926,4.7964,4.7981,4.7995,4.7991,4.777,0,0,0,0,0,4.7674,4.7723,4.7733,4.7811,4.7824,4.7819,4.7844,4.783,4.7852,4.7861,4.7867,4.7888,4.7929,4.7956,4.7993,4.8086,4.8088,4.8129,4.8143,4.8154,4.8163,4.8211,4.8229,4.8038,4.8038,4.8038,0,0,4.7727,4.7742,4.7773,4.7825,4.7841,4.789,4.7827,4.7881,4.7917,4.7868,4.7937,4.7943,4.7965,4.8048,4.8084,4.8056,4.8217,4.8165,4.8174,4.8177,4.8222,4.824,4.8256,4.8044,4.8043,4.8042,0,0,4.7848,4.7865,4.7931,4.7949,4.7975,4.7972,4.7988,4.8006,4.8008,4.8078,4.8042,4.8083,4.8154,4.817,4.8188,4.8317,4.8286,4.833,4.8401,4.8448,4.8463,4.8477,4.8521,4.8537,4.8339,4.8339,4.834,0,4.791,4.7984,4.7968,4.8025,4.8048,4.8009,4.8075,4.8093,4.8129,4.8145,4.8113,4.8201,4.8213,4.8298,4.833,4.8346,4.8362,4.8326,4.8463,4.8476,4.8488,4.853,4.8547,4.8344,4.8344,4.8343,4.8343,0,4.8057,4.8109,4.8159,4.8197,4.8226,4.8287,4.828,4.831,4.8294,4.8294,4.8364,4.8378,4.8417,4.8437,4.8421,4.852,4.8501,4.8467,4.8408,4.8511,4.855,4.8566,4.8352,4.835,4.8348,4.8347,0,0,4.822,4.825,4.8269,4.8285,4.8311,4.835,4.8409,4.8449,4.8475,4.8502,4.8549,4.8611,4.8579,4.8599,4.8585,4.8627,4.8726,4.8587,4.8587,4.8611,4.8834,4.8858,4.8877,4.8707,4.871,4.8713,4.8832,0,4.834,4.8444,4.8432,4.853,4.8577,4.8541,4.8592,4.8613,4.8614,4.8652,4.8653,4.8696,4.8652,4.8664,4.8704,4.8706,4.877,4.8697,4.8749,4.8751,4.8742,4.8898,4.8924,4.9035,4.8847,4.8849,4.8851,0,4.8493,4.8527,4.8631,4.865,4.8668,4.8715,4.875,4.8789,4.8811,4.8809,4.8832,4.8811,4.8868,4.8811,4.8889,4.8839,4.886,4.8864,4.8868,4.887,4.8806,4.8902,4.9071,4.9087,4.8875,4.8873,4.8872,0,4.8599,4.8671,4.8742,4.8757,4.8782,4.8815,4.8826,4.8845,4.887,4.8901,4.8916,4.8953,4.8973,4.9001,4.8989,4.8949,4.9069,4.9011,4.9067,4.9067,4.9091,4.909,4.9264,4.9109,4.9109,4.9108,4.9108,0,4.8733,4.8797,4.879,4.8833,4.8904,4.8889,4.8959,4.8965,4.8983,4.9026,4.8997,4.9037,4.9021,4.906,4.9051,4.9116,4.9125,4.9123,4.912,4.9125,4.9125,4.9136,4.9127,4.9113,4.9112,4.9111,4.911,0,4.8862,4.886,4.8935,4.8953,4.8959,4.901,4.9024,4.9064,4.9064,4.9118,4.913,4.9129,4.9173,4.9165,4.9214,4.9208,4.9288,4.9276,4.9281,4.9278,4.9333,4.9327,4.9519,4.9542,4.9374,4.9376,4.9377,0,4.8946,4.8995,4.9019,4.9046,4.9061,4.9105,4.9131,4.9119,4.9146,4.9176,4.9212,4.9254,4.9287,4.9359,4.9361,4.9398,4.9386,4.945,4.9391,4.9394,4.9384,4.9381,4.9385,4.9461,4.9463,4.9465,4.9466,0,4.9096,4.9093,4.9132,4.9171,4.9203,4.9233,4.9259,4.9283,4.9273,4.9305,4.9351,4.9377,4.9427,4.9469,4.9503,4.9513,4.9487,4.9485,4.95,4.9504,4.9504,4.9503,4.9311,4.948,4.9479,4.9478,4.9477,4.9476,4.9204,4.9245,4.9268,4.9313,4.9332,4.9358,4.9396,4.9402,4.944,4.9481,4.9472,4.9523,4.9544,4.9588,4.9602,4.964,4.9616,4.9638,4.9643,4.9648,4.9654,4.95,4.9647,4.9646,4.9646,4.9646,4.9645,0,4.935,4.9363,4.9405,4.9444,4.9478,4.9454,4.9482,4.9512,4.9559,4.9581,4.9615,4.9667,4.9707,4.9714,4.9752,4.9782,4.9771,4.9792,4.9788,4.9791,4.9674,4.9657,4.98,4.98,4.98,4.98,4.98,4.98,4.943,4.9498,4.9498,4.9575,4.9588,4.964,4.9658,4.9681,4.9698,4.9759,4.9793,4.9798,4.9813,4.9852,4.9887,4.9888,4.9902,4.9928,4.9924,4.9814,4.9799,4.9784,4.9768,4.9932,4.9932,5.0037,5.0038,5.0038]}]]